ONEWEB-0710 (55173 NORAD) Tracking and Keplerian Element Data

This shows tracking and keplerian element data for the satellite.

Feedback or suggestion? Click here.




ElementValue
Catalog55173
NameONEWEB-0710
Epoch Orbit130
Epoch Day13.91667824
Epoch Year2023
RAAN284.1411
Inclination86.5114
Eccentricity0.0012626
Argument of Perigee208.2021
Mean Anonmoly65.9196
Mean Motion14.91617135
Decay Rate-0.00049842
L11 55173U 23004AK 23013.91667824 -.00049842 00000+0 -50037-2 0 9997
L22 55173 86.5114 284.1411 0012626 208.2021 65.9196 14.91617135 1309



Live tracking and technical data element details for ONEWEB-0710 (NORAD 55173). ONEWEB-0710 can be tracked NOW for your location showing map with azimuth and elevation plus other details from your city location.







IsCatalogInMostPopularTable: catalog: 55173, numindb: 3
Update: records affected: 1



GetName: 55173 ONEWEB-0710

Hit Count: updated at: Tue, 07 Feb 2023 14:13:47 GMT